This is the latest recevied weather packets stored in our database for station/object OK2ILA-3. If no packets are shown the sender has not sent any weather packets the latest 10 day(s).
| Time | Temp. | Humidity | Pressure | Rain* | Wind** | Luminosity | Snow |
|---|---|---|---|---|---|---|---|
| 1777902375 | 21.11° C | 100% | 0 hPa | 0 mm | - | - | - |
| 1777901770 | 21.11° C | 100% | 0 hPa | 0 mm | - | - | - |
| 1777901163 | 21.67° C | 6% | 0 hPa | 0 mm | - | - | - |
| 1777900556 | 22.22° C | 12% | 0.6 hPa | 0 mm | - | - | - |
| 1777899951 | 22.22° C | 23% | 0.6 hPa | 0 mm | - | - | - |
| 1777899346 | 21.67° C | 52% | 0 hPa | 0 mm | - | - | - |
| 1777898741 | 21.67° C | 34% | 1229.3 hPa | 0 mm | - | - | - |
| 1777898136 | 22.22° C | 77% | 3456.2 hPa | 0 mm | - | - | - |
| 1777897529 | 22.22° C | 2% | 4352 hPa | 0 mm | - | - | - |
| 1777896925 | 22.22° C | 13% | 5324.8 hPa | 0 mm | - | - | - |
| 1777896321 | 22.22° C | 65% | 5324.8 hPa | 0 mm | - | - | - |
| 1777895715 | 22.22° C | 77% | 5324.8 hPa | 0 mm | - | - | - |
| 1777895110 | 22.22° C | 100% | 8.1 hPa | 0 mm | - | - | - |
| 1777894506 | 21.67° C | 12% | 8.1 hPa | 0 mm | - | - | - |
| 1777893899 | 22.78° C | 76% | 0 hPa | 0 mm | - | - | - |
| 1777893292 | 22.78° C | 100% | 6314.6 hPa | 0 mm | - | - | - |
| 1777892684 | 22.22° C | 77% | 6314.6 hPa | 0 mm | - | - | - |
| 1777891472 | 21.67° C | 5% | 3020.8 hPa | 0 mm | - | - | - |
| 1777890868 | 21.11° C | 5% | 8.1 hPa | 0 mm | - | - | - |
| 1777890259 | 21.11° C | 63% | 8.1 hPa | 0 mm | - | - | - |
| 1777889654 | 21.67° C | 5% | 8.1 hPa | 0 mm | - | - | - |
| 1777889050 | 21.67° C | 5% | 8.1 hPa | 0 mm | - | - | - |
| 1777887836 | 21.67° C | 12% | 5094.4 hPa | 0 mm | - | - | - |
| 1777887232 | 21.11° C | 12% | 5094.4 hPa | 0 mm | - | - | - |
| 1777886625 | 22.22° C | 100% | 0.9 hPa | 0 mm | - | - | - |
* Rain latest 24 hours (hover to see other rain measurements)
** Current wind speed in m/s (hover to see current wind gust speed)